• In Hungary
  • List of Countries
  • For 7 days
  • Water Temperature
  • Satellite Maps
  • Weather Map
  • News
  • Weather Widgets
  • user-avatar
    Login

    Hourly Weather El Paso

    Today, 23 October, Monday

    Time Temperature Precipitation Wind Pressure Humidity
    00:00 +19°C° 0 mm 2 mps 667 mmHg 20%
    01:00 +19°C° 0 mm 2 mps 666 mmHg 21%
    02:00 +18°C° 0 mm 2 mps 666 mmHg 22%
    03:00 +18°C° 0 mm 2 mps 666 mmHg 23%
    04:00 +17°C° 0 mm 2 mps 666 mmHg 24%
    05:00 +17°C° 0 mm 2 mps 666 mmHg 25%
    06:00 +18°C° 0 mm 2 mps 666 mmHg 25%
    07:00 +19°C° 0 mm 2 mps 667 mmHg 24%
    08:00 +20°C° 0 mm 2 mps 668 mmHg 24%
    09:00 +23°C° 0 mm 2 mps 668 mmHg 22%
    10:00 +25°C° 0 mm 3 mps 668 mmHg 20%
    11:00 +27°C° 0 mm 3 mps 669 mmHg 18%
    12:00 +27°C° 0 mm 4 mps 668 mmHg 17%
    13:00 +28°C° 0 mm 4 mps 668 mmHg 16%
    14:00 +29°C° 0 mm 4 mps 668 mmHg 16%
    15:00 +29°C° 0 mm 4 mps 667 mmHg 17%
    16:00 +28°C° 0 mm 3 mps 667 mmHg 19%
    17:00 +28°C° 0 mm 3 mps 667 mmHg 20%
    18:00 +26°C° 0 mm 2 mps 667 mmHg 22%
    19:00 +25°C° 0 mm 2 mps 667 mmHg 24%
    20:00 +24°C° 0 mm 2 mps 667 mmHg 26%
    21:00 +23°C° 0 mm 2 mps 667 mmHg 26%
    22:00 +22°C° 0 mm 3 mps 667 mmHg 27%
    23:00 +21°C° 0 mm 4 mps 668 mmHg 28%

    Tomorrow, 24 October, Tuesday

    Time Temperature Precipitation Wind Pressure Humidity
    00:00 +21°C° 0 mm 5 mps 668 mmHg 31%
    01:00 +20°C° 0 mm 7 mps 668 mmHg 34%
    02:00 +18°C° 0 mm 9 mps 668 mmHg 36%
    03:00 +17°C° 0 mm 9 mps 668 mmHg 40%
    04:00 +16°C° 0 mm 10 mps 669 mmHg 43%
    05:00 +14°C° 0 mm 11 mps 669 mmHg 46%
    06:00 +14°C° 0 mm 11 mps 670 mmHg 45%
    07:00 +14°C° 0 mm 11 mps 670 mmHg 43%
    08:00 +14°C° 0 mm 11 mps 671 mmHg 41%
    09:00 +16°C° 0 mm 11 mps 671 mmHg 36%
    10:00 +17°C° 0 mm 10 mps 672 mmHg 31%
    11:00 +18°C° 0 mm 10 mps 672 mmHg 27%
    12:00 +19°C° 0 mm 9 mps 671 mmHg 25%
    13:00 +20°C° 0 mm 8 mps 671 mmHg 23%
    14:00 +21°C° 0 mm 8 mps 670 mmHg 22%
    15:00 +20°C° 0 mm 7 mps 670 mmHg 22%
    16:00 +20°C° 0 mm 7 mps 670 mmHg 23%
    17:00 +18°C° 0 mm 7 mps 670 mmHg 23%
    18:00 +19°C° 0 mm 6 mps 670 mmHg 24%
    19:00 +17°C° 0 mm 6 mps 670 mmHg 25%
    20:00 +16°C° 0 mm 6 mps 671 mmHg 26%
    21:00 +15°C° 0 mm 5 mps 670 mmHg 27%
    22:00 +15°C° 0 mm 5 mps 670 mmHg 28%
    23:00 +14°C° 0 mm 4 mps 670 mmHg 29%

    Day after tomorrow, 25 October, Wednesday

    Time Temperature Precipitation Wind Pressure Humidity
    00:00 +14°C° 0 mm 4 mps 670 mmHg 30%
    01:00 +13°C° 0 mm 3 mps 670 mmHg 31%
    02:00 +13°C° 0 mm 3 mps 669 mmHg 32%
    03:00 +13°C° 0 mm 3 mps 669 mmHg 32%
    04:00 +12°C° 0 mm 3 mps 669 mmHg 33%
    05:00 +12°C° 0 mm 3 mps 668 mmHg 34%
    06:00 +13°C° 0 mm 3 mps 669 mmHg 32%
    07:00 +13°C° 0 mm 3 mps 669 mmHg 31%
    08:00 +14°C° 0 mm 3 mps 669 mmHg 30%
    09:00 +17°C° 0 mm 4 mps 669 mmHg 28%
    10:00 +18°C° 0 mm 4 mps 669 mmHg 25%
    11:00 +20°C° 0 mm 4 mps 669 mmHg 23%
    12:00 +21°C° 0 mm 4 mps 668 mmHg 23%
    13:00 +22°C° 0 mm 4 mps 667 mmHg 22%
    14:00 +24°C° 0 mm 3 mps 666 mmHg 21%
    15:00 +24°C° 0 mm 3 mps 666 mmHg 23%
    16:00 +23°C° 0 mm 2 mps 665 mmHg 24%
    17:00 +23°C° 0 mm 2 mps 665 mmHg 26%
    18:00 +21°C° 0 mm 2 mps 665 mmHg 28%
    19:00 +20°C° 0 mm 2 mps 664 mmHg 30%
    20:00 +19°C° 0 mm 2 mps 664 mmHg 32%
    21:00 +20°C° 0 mm 1 mps 664 mmHg 34%
    22:00 +19°C° 0 mm 1 mps 663 mmHg 36%
    23:00 +18°C° 0 mm 1 mps 663 mmHg 38%

    26 October, Thursday

    Time Temperature Precipitation Wind Pressure Humidity
    00:00 +18°C° 0 mm 1 mps 662 mmHg 40%
    01:00 +16°C° 0 mm 1 mps 662 mmHg 42%
    02:00 +16°C° 0 mm 1 mps 661 mmHg 44%
    03:00 +16°C° 0 mm 1 mps 661 mmHg 44%
    04:00 +16°C° 0 mm 1 mps 661 mmHg 44%
    05:00 +15°C° 0 mm 1 mps 661 mmHg 44%
    06:00 +18°C° 0 mm 1 mps 662 mmHg 41%
    07:00 +18°C° 0 mm 2 mps 662 mmHg 38%
    08:00 +19°C° 0 mm 2 mps 663 mmHg 35%
    09:00 +21°C° 0 mm 3 mps 663 mmHg 32%
    10:00 +23°C° 0 mm 4 mps 664 mmHg 28%
    11:00 +26°C° 0 mm 5 mps 664 mmHg 25%
    12:00 +26°C° 0 mm 5 mps 664 mmHg 23%
    13:00 +27°C° 0 mm 6 mps 663 mmHg 21%
    14:00 +28°C° 0 mm 6 mps 663 mmHg 19%
    15:00 +27°C° 0 mm 5 mps 663 mmHg 20%
    16:00 +27°C° 0 mm 4 mps 663 mmHg 21%
    17:00 +26°C° 0 mm 3 mps 663 mmHg 22%
    18:00 +23°C° 0 mm 5 mps 663 mmHg 24%
    19:00 +21°C° 0 mm 7 mps 663 mmHg 26%
    20:00 +19°C° 0 mm 9 mps 664 mmHg 29%
    21:00 +18°C° 0 mm 9 mps 664 mmHg 32%
    22:00 +17°C° 0 mm 10 mps 664 mmHg 35%
    23:00 +16°C° 0 mm 10 mps 665 mmHg 37%

    27 October, Friday

    Time Temperature Precipitation Wind Pressure Humidity
    00:00 +14°C° 0 mm 10 mps 665 mmHg 39%
    01:00 +13°C° 0 mm 9 mps 665 mmHg 42%
    02:00 +12°C° 0 mm 9 mps 665 mmHg 44%
    03:00 +11°C° 0 mm 9 mps 665 mmHg 43%
    04:00 +10°C° 0 mm 8 mps 665 mmHg 43%
    05:00 +10°C° 0 mm 8 mps 666 mmHg 42%
    06:00 +10°C° 0 mm 8 mps 666 mmHg 41%
    07:00 +10°C° 0 mm 7 mps 667 mmHg 40%
    08:00 +10°C° 0 mm 7 mps 667 mmHg 39%
    09:00 +11°C° 0 mm 7 mps 667 mmHg 36%
    10:00 +14°C° 0 mm 6 mps 667 mmHg 33%
    11:00 +15°C° 0 mm 6 mps 667 mmHg 30%
    12:00 +16°C° 0 mm 5 mps 667 mmHg 29%
    13:00 +17°C° 0 mm 5 mps 666 mmHg 28%
    14:00 +19°C° 0 mm 4 mps 666 mmHg 26%
    15:00 +19°C° 0 mm 4 mps 666 mmHg 27%
    16:00 +18°C° 0 mm 4 mps 666 mmHg 28%
    17:00 +18°C° 0 mm 4 mps 666 mmHg 28%
    18:00 +17°C° 0 mm 4 mps 666 mmHg 29%
    19:00 +15°C° 0 mm 5 mps 666 mmHg 31%
    20:00 +14°C° 0 mm 5 mps 666 mmHg 32%
    21:00 +13°C° 0 mm 4 mps 666 mmHg 32%
    22:00 +13°C° 0 mm 4 mps 666 mmHg 33%
    23:00 +12°C° 0 mm 4 mps 665 mmHg 34%

    28 October, Saturday

    Time Temperature Precipitation Wind Pressure Humidity
    00:00 +11°C° 0 mm 4 mps 665 mmHg 34%
    01:00 +11°C° 0 mm 3 mps 665 mmHg 35%
    02:00 +11°C° 0 mm 3 mps 665 mmHg 36%
    03:00 +10°C° 0 mm 3 mps 665 mmHg 37%
    04:00 +10°C° 0 mm 3 mps 665 mmHg 38%
    05:00 +10°C° 0 mm 2 mps 664 mmHg 38%
    06:00 +10°C° 0 mm 2 mps 665 mmHg 37%
    07:00 +12°C° 0 mm 2 mps 665 mmHg 36%
    08:00 +13°C° 0 mm 2 mps 666 mmHg 34%
    09:00 +15°C° 0 mm 2 mps 666 mmHg 32%
    10:00 +16°C° 0 mm 2 mps 666 mmHg 30%
    11:00 +18°C° 0 mm 2 mps 666 mmHg 27%
    12:00 +19°C° 0 mm 2 mps 666 mmHg 26%
    13:00 +21°C° 0 mm 1 mps 665 mmHg 25%
    14:00 +22°C° 0 mm 1 mps 665 mmHg 23%
    15:00 +22°C° 0 mm 1 mps 665 mmHg 25%
    16:00 +22°C° 0 mm 1 mps 665 mmHg 26%
    17:00 +22°C° 0 mm 1 mps 665 mmHg 27%
    18:00 +21°C° 0 mm 1 mps 665 mmHg 29%
    19:00 +19°C° 0 mm 2 mps 665 mmHg 30%
    20:00 +18°C° 0 mm 2 mps 665 mmHg 31%
    21:00 +17°C° 0 mm 2 mps 665 mmHg 32%
    22:00 +17°C° 0 mm 2 mps 665 mmHg 33%
    23:00 +16°C° 0 mm 2 mps 664 mmHg 34%

    29 October, Sunday

    Time Temperature Precipitation Wind Pressure Humidity
    00:00 +16°C° 0 mm 2 mps 664 mmHg 35%
    01:00 +16°C° 0 mm 2 mps 664 mmHg 36%
    02:00 +15°C° 0 mm 2 mps 664 mmHg 37%
    03:00 +15°C° 0 mm 2 mps 663 mmHg 38%
    04:00 +14°C° 0 mm 2 mps 663 mmHg 39%
    05:00 +14°C° 0 mm 1 mps 663 mmHg 41%
    06:00 +15°C° 0 mm 1 mps 663 mmHg 39%
    07:00 +16°C° 0 mm 1 mps 664 mmHg 37%
    08:00 +18°C° 0 mm 1 mps 664 mmHg 34%
    09:00 +20°C° 0 mm 1 mps 665 mmHg 32%
    10:00 +20°C° 0 mm 2 mps 665 mmHg 29%
    11:00 +23°C° 0 mm 2 mps 665 mmHg 27%
    12:00 +24°C° 0 mm 2 mps 664 mmHg 24%
    13:00 +25°C° 0 mm 3 mps 664 mmHg 22%
    14:00 +26°C° 0 mm 3 mps 663 mmHg 20%
    15:00 +25°C° 0 mm 3 mps 663 mmHg 21%
    16:00 +25°C° 0 mm 3 mps 663 mmHg 22%
    17:00 +24°C° 0 mm 2 mps 662 mmHg 23%
    18:00 +23°C° 0 mm 2 mps 662 mmHg 25%
    19:00 +21°C° 0 mm 2 mps 662 mmHg 26%
    20:00 +21°C° 0 mm 1 mps 662 mmHg 27%
    21:00 +20°C° 0 mm 2 mps 662 mmHg 28%
    22:00 +19°C° 0 mm 2 mps 662 mmHg 28%
    23:00 +19°C° 0 mm 2 mps 662 mmHg 28%
    Show more